Retour au catalogue

THOR BURNER 2 R/B

ActifSSO
NORAD 2940·ROCKET BODY·🇺🇸 United States

Lancé Aug 23, 1967 depuis Vandenberg Space Force Base

Loading…

Prochains Passages (prochaines 24 heures)

TLE

FraisSource: Space-Track

Époque: Sep 14, 2026, 22:19 UTC

1 02940U 67080B   26257.93049134  .00000036  00000-0  38598-4 0  9997
2 02940  98.5409  81.0529 0036415 309.7940  50.0031 14.17284931 47705

Suivez THOR BURNER 2 R/B en temps réel avec AllMySat

Download on the App Store